This is the latest recevied weather packets stored in our database for station/object N3WMC. If no packets are shown the sender has not sent any weather packets the latest 10 day(s).
| Time | Temp. | Humidity | Pressure | Rain* | Wind** | Luminosity | Snow |
|---|---|---|---|---|---|---|---|
| 1777811900 | 5° C | 79% | 1018.4 hPa | 0 mm | - | 40 W/m² | - |
| 1777811599 | 4.44° C | 79% | 1018.4 hPa | 0 mm | - | 48 W/m² | - |
| 1777811294 | 4.44° C | 80% | 1018.4 hPa | 0 mm | - | 40 W/m² | - |
| 1777810992 | 3.89° C | 88% | 1018.1 hPa | 0 mm | - | 196 W/m² | - |
| 1777810689 | 2.78° C | 94% | 1018.2 hPa | 0 mm | - | 196 W/m² | - |
| 1777810385 | 2.78° C | 97% | 1018.3 hPa | 0 mm | - | 184 W/m² | - |
| 1777810081 | 3.33° C | 98% | 1018.3 hPa | 0 mm | - | 157 W/m² | - |
| 1777809779 | 2.22° C | 98% | 1018.2 hPa | 0 mm | - | 145 W/m² | - |
| 1777809476 | 1.67° C | 98% | 1018.3 hPa | 0 mm | - | 83 W/m² | - |
| 1777809173 | 1.11° C | 98% | 1018.2 hPa | 0 mm | - | 49 W/m² | - |
| 1777808871 | 0.56° C | 98% | 1018.1 hPa | 0 mm | - | 41 W/m² | - |
| 1777808567 | 0° C | 98% | 1018.2 hPa | 0 mm | - | 85 W/m² | - |
| 1777808264 | 0° C | 98% | 1018.3 hPa | 0 mm | - | 29 W/m² | - |
| 1777807963 | -0.56° C | 98% | 1018 hPa | 0 mm | - | 25 W/m² | - |
| 1777807660 | -1.11° C | 98% | 1018.2 hPa | 0 mm | - | 32 W/m² | - |
| 1777807358 | -1.11° C | 98% | 1018 hPa | 0 mm | - | 23 W/m² | - |
| 1777807053 | -1.67° C | 98% | 1017.9 hPa | 0 mm | - | 22 W/m² | - |
| 1777806751 | -2.22° C | 98% | 1018 hPa | 0 mm | - | 20 W/m² | - |
| 1777806446 | -2.78° C | 98% | 1018 hPa | 0 mm | - | 19 W/m² | - |
| 1777806143 | -2.22° C | 98% | 1018 hPa | 0 mm | - | 17 W/m² | - |
| 1777805840 | -2.22° C | 98% | 1017.9 hPa | 0 mm | - | 16 W/m² | - |
| 1777805537 | -2.22° C | 98% | 1017.6 hPa | 0 mm | - | 14 W/m² | - |
| 1777805234 | -2.22° C | 98% | 1017.8 hPa | 0 mm | - | 13 W/m² | - |
| 1777804932 | -2.78° C | 98% | 1017.8 hPa | 0 mm | - | 11 W/m² | - |
| 1777804630 | -2.78° C | 98% | 1017.5 hPa | 0 mm | - | 9 W/m² | - |
* Rain latest hour (hover to see other rain measurements)
** Current wind speed in m/s (hover to see current wind gust speed)